{"data":{"norad_id":47827,"intl_designator":"2021-018AS","name":"STARLINK-2413","alt_names":[],"object_type":"PAYLOAD","status":"ACTIVE","operator":null,"country":"US","launch_date":"2021-03-11","launch_site_code":"AFETR","launch_vehicle":null,"mission":null,"orbit_class":"UNKNOWN","rcs_meters":null,"size_class":null,"mass_kg":null,"dimensions":null,"purposes":["comms"],"wikipedia_slug":null,"has_3d_model":false,"image_url":null,"decayed_at":null,"tle_current":{"epoch":"2026-09-20T03:19:41.761056Z","epoch_age_seconds":60467,"freshness":"FRESH","line1":"1 47827U 21018AS  26263.13867779 -.00000610  00000+0 -78864-5 0  9993","line2":"2 47827  53.1596  57.6645 0000901  98.8261 261.2842 15.31702910306571","mean_motion":15.3170291,"eccentricity":9.01e-5,"inclination_deg":53.1596,"raan_deg":57.6645,"arg_perigee_deg":98.8261,"mean_anomaly_deg":261.2842,"bstar":-7.8864e-6,"rev_number":30657,"period_min":94.013009350488,"perigee_km":470.11423764511,"apogee_km":471.3484037165,"semimajor_km":6848.8683206808,"source":"CELESTRAK","updated_at":"2026-09-20T09:00:38.751044Z"}}}